FENGYUN 1C DEB

Satellite information

Favourite Embed

Satellite Type and Status

DEBRISIN ORBIT

Key statistics

Satellite FENGYUN 1C DEB at a glance.

Uptime

9715

Days in orbit

Revolutions

≈ 14.3

Per day

Orbit

SSO

Sun Synchronous Orbit

Inclination

99.1

Latest

Satellite identification and parameters

Extended collection of information and parameters for FENGYUN 1C DEB.

Object identification

Identified? True

Debris? True

Object name: FENGYUN 1C DEB

International designator: 1999-025DTF

Object number (NORAD): 36182

Object ID (CCSDS): 36182

Country: PEOPLES REPUBLIC OF CHINA (PRC)

Current information (Y/N): Y

RCS size: SMALL

Orbital parameters

Period: 100.368 minutes

Inclination: 99.0882 deg

SMA: 7154.141 km

Apoapsis: 791.681 km

Periapsis: 760.33 km

RAAN: 273.786 deg

Eccentricy: 0.00219109

Argument of periapsis: 77.1307 deg

Mean anomaly: 283.2322 deg

Mean motion: 14.34717961 rev/day

Mean motion (dot): 0.00006856 rev/day2

B* drag term: 0.002429124 1/REarth

Two-line elements (TLE)

Creation date: Dec. 13, 2025, 4:32 a.m.

Reference frame: TEME

Reference center: EARTH

Epoch: Dec. 12, 2025, 6:09 a.m. UTC

TLE line 0: 0 FENGYUN 1C DEB

TLE line 1: 1 36182U 99025DTF 25346.25669348 .00006856 00000-0 24291-2 0 9993

TLE line 2: 2 36182 99.0882 273.7860 0021911 77.1307 283.2322 14.34717961879504

Live tracking on map

Real-time ground track for satellite FENGYUN 1C DEB.

In-orbit conjunctions

A list of the most updated potential collisions computed for object FENGYUN 1C DEB.

Target Orbit TCA Probability of collision Miss distance Type
NOAA 16 DEB SSO 2025-11-08 11:48:23 0.0002077413 432.0 (m) DEBRIS
FENGYUN 1C DEB SSO 2025-07-11 13:50:54 0.0001354658 205.0 (m) DEBRIS
NOAA 6 SSO 2025-06-19 19:02:16 0.0001701316 670.0 (m) PAYLOAD
CZ-6A DEB LEO 2024-11-08 17:17:54 0.001028799 260.0 (m) DEBRIS
CZ-6A DEB LEO 2024-11-07 09:23:21 0.0001444776 816.0 (m) DEBRIS

Associated space launch

Chinese polar orbiting meteorological satellite

FENGYUN 1C DEB was lifted into orbit during the mission ‘Long March 4B | Feng Yun 1C’, on board a Long March 4B space rocket.

The launch took place on May 10, 1999, 1:33 a.m. from Launch Complex 7.

For more information about the launch, click the button.

Launch to space Long March 4B | Feng Yun 1C
Long March 4B | Feng Yun 1C

Agency: N/A

Status: Launch Successful

Launch date: May 10, 1999, 1:33 a.m. UTC

Rocket: Long March 4B

Launch pad: Launch Complex 7

Location: Taiyuan Satellite Launch Center, People's Republic of China

...

Latest news about this satellite

There are no fresh news available about this satellite. Check back as we update our databases every day.


Newsletter sign-up

Weekly statistics, charts and insights to help you stay on top of the space industry.